Tracking 19176 objects as of 27-May-2018
HD Live streaming from Space Station
objects crossing your sky now

VIKING

Track VIKING now!
10-day predictions
VIKING is classified as:


NORAD ID: 16614
Int'l Code: 1986-019B
Perigee: 812.8 km
Apogee: 13,541.2 km
Inclination: 98.8 °
Period: 261.6 minutes
Semi major axis: 13547 km
RCS: 2.8796 m2 (large)
Launch date: February 22, 1986
Source: Sweden (SWED)
Launch site: FRENCH GUIANA (FRGUI)
aabbcc
Your satellite tracking list
Your tracking list is empty




NASA's NSSDC Master Catalog

Two Line Element Set (TLE):
1 16614U 86019B   18147.30039484 +.00000052 +00000-0 +71346-3 0  9995
2 16614 098.8258 086.7679 4697530 335.4239 259.6214 05.50544081648263
Source of the keplerian elements: AFSPC